Flag for Japan Weather past 2 weeks in Himeji, Japan

Now
66 °F

Passing clouds.


Feels Like: 66 °F
Forecast: 47 / 67 °F
Wind: 10 mph from Southwest

Location: Osaka International Airport

Current Time: Apr 18, 2015 at 6:22:19 PM

Latest Report: Apr 18, 2015 at 6:00 PM


Visibility: N/A

Pressure: 30.01 "Hg

Humidity: 43%

Dew point: 43 °F

Location of HimejiLocation

Historic Weather in Himeji — Graph

°F

Himeji temperature yesterday

Maximum temperature yesterday: 68 °F (at 4:00 PM)
Minimum temperature yesterday: 55 °F (at 8:00 AM)
Average temperature yesterday: 62 °F

Past Weeks' High & Low Weather Summary

 TemperatureHumidityPressure
High77 °F (Apr 4, 2:00 PM)100% (Apr 5, 3:00 PM)30.36 "Hg (Apr 5, 3:00 PM)
Low41 °F (Apr 8, 5:00 AM)12% (Apr 18, 2:00 PM)29.62 "Hg (Apr 15, 5:00 AM)
Average58 °F70%30.01 "Hg
* Reported Apr 3 5:00 PM — Apr 18 5:00 PM, Himeji, Weather by CustomWeather, © 2015

Note: Actual official high and low records may vary slightly from our data, if they occured in-between our weather recording intervals... More about our weather records

Advertising

Himeji weather history for previous 24 hours

 ConditionsComfort  
Time TempWeatherWind HumidityBarometerVisibility
5:00 PM
Sat, Apr 18
68 °FSunny.13 mph38%30.01 "Hg10 mi
4:00 PM70 °FSunny.17 mph33%30.01 "Hg10 mi
3:00 PM70 °FPassing clouds.12 mph27%30.04 "HgN/A
2:00 PM72 °FPassing clouds.10 mph12%30.07 "HgN/A
1:00 PM72 °FPassing clouds.10 mph13%30.07 "HgN/A
12:00 PM70 °FPassing clouds.7 mph18%30.09 "HgN/A
11:00 AM66 °FPassing clouds.6 mph21%30.12 "HgN/A
10:00 AM63 °FSunny.3 mph27%30.12 "Hg10 mi
9:00 AM57 °FPassing clouds.3 mph39%30.15 "HgN/A
8:00 AM52 °FSunny.6 mph50%30.12 "Hg10 mi
7:00 AM46 °FSunny.3 mph62%30.12 "Hg10 mi
6:00 AM45 °FSunny.2 mph66%30.09 "Hg10 mi
5:00 AM43 °FClear.5 mph76%30.09 "Hg10 mi
8:00 PM
Fri, Apr 17
57 °FPassing clouds.3 mph39%30.01 "HgN/A
7:00 PM59 °FPassing clouds.8 mph34%30.01 "HgN/A
6:00 PM61 °FPassing clouds.13 mph31%29.98 "HgN/A
Weather by CustomWeather, © 2015

See weather overviewHow to use our weather pages